Location: Newark
(46.7636°N, 1.8358°W)
Time: 17:23:19
(UTC+00:00)

Vanguard 2 Rocket - Pass Details

Date: 13 October 2019
Orbit: 554 x 3326 km, 32.9° (Epoch: 13 November)

Event Time Altitude Azimuth Distance (km) Brightness Sun altitude
Rises 12:48:32 0° 248° (WSW) 7,312 12.0 34.1°
Reaches altitude 10° 12:53:50 10° 243° (WSW) 6,246 11.9 33.8°
Maximum altitude 13:11:42 48° 179° (S) 3,285 11.2 32.8°
Drops below altitude 10° 13:23:48 10° 110° (ESE) 4,350 10.4 31.9°
Sets 13:26:45 0° 105° (ESE) 5,021 10.6 31.6°
